Radiation Dose measured at exhaust stack monitor of Miscellaneous Solid Waste Incinerator Building/Incinerator raregas monitor
Date,Time,Incinerator Gas Monitor(cps),Wind Direction,Wind Velocity(m/s)
2021/10/01,00:00,1.4,south,8.4
2021/10/01,00:10,1.5,south,7.1
2021/10/01,00:20,1.4,south,7.3
2021/10/01,00:30,1.5,south-southeast,7.8
2021/10/01,00:40,1.5,south,7.0
2021/10/01,00:50,1.5,south,7.8
2021/10/01,01:00,1.4,south,8.0
2021/10/01,01:10,1.5,south,7.7
2021/10/01,01:20,1.5,south,5.7
2021/10/01,01:30,1.4,south,5.5
2021/10/01,01:40,1.5,south-southwest,5.7
2021/10/01,01:50,1.5,south,5.0
2021/10/01,02:00,1.5,south-southwest,4.7
2021/10/01,02:10,1.5,south-southwest,4.5
2021/10/01,02:20,1.5,south,4.2
2021/10/01,02:30,1.4,south,3.2
2021/10/01,02:40,1.4,south,3.4
2021/10/01,02:50,1.4,south,3.5
2021/10/01,03:00,1.5,south,3.5
2021/10/01,03:10,1.4,south-southeast,3.6
2021/10/01,03:20,1.5,south,3.1
2021/10/01,03:30,1.5,south,3.0
2021/10/01,03:40,1.4,south-southwest,2.9
2021/10/01,03:50,1.5,south-southwest,3.5
2021/10/01,04:00,1.6,south-southwest,2.9
2021/10/01,04:10,1.5,southwest,1.7
2021/10/01,04:20,1.6,-,CALM
2021/10/01,04:30,1.5,-,CALM
2021/10/01,04:40,1.4,west-southwest,0.9
2021/10/01,04:50,1.5,east-northeast,1.2
2021/10/01,05:00,1.5,-,CALM
2021/10/01,05:10,1.5,south-southeast,0.9
2021/10/01,05:20,1.5,southeast,2.5
2021/10/01,05:30,1.5,south-southeast,1.2
2021/10/01,05:40,1.5,-,CALM
2021/10/01,05:50,1.5,southeast,3.4
2021/10/01,06:00,1.4,southeast,2.0
2021/10/01,06:10,1.5,north-northwest,3.2
2021/10/01,06:20,1.4,north-northeast,0.6
2021/10/01,06:30,1.4,north,2.2
2021/10/01,06:40,1.6,north-northwest,3.3
2021/10/01,06:50,1.6,northwest,3.4
2021/10/01,07:00,1.4,north-northwest,3.8
2021/10/01,07:10,1.5,north-northwest,3.9
2021/10/01,07:20,1.5,north-northwest,3.6
2021/10/01,07:30,1.5,north-northwest,4.5
2021/10/01,07:40,1.5,north-northwest,4.7
2021/10/01,07:50,1.4,north-northwest,5.3
2021/10/01,08:00,1.4,north-northwest,5.6
2021/10/01,08:10,1.5,north-northwest,5.7
2021/10/01,08:20,1.5,north-northwest,6.1
2021/10/01,08:30,1.5,north-northwest,6.1
2021/10/01,08:40,1.5,north-northwest,6.1
2021/10/01,08:50,1.5,north-northwest,6.7
2021/10/01,09:00,1.5,north-northwest,6.6
2021/10/01,09:10,1.5,north-northwest,6.4
2021/10/01,09:20,1.5,north-northwest,6.4
2021/10/01,09:30,1.4,north-northwest,6.6
2021/10/01,09:40,1.4,north-northwest,6.0
2021/10/01,09:50,1.4,north-northwest,5.6
2021/10/01,10:00,1.4,north-northwest,5.4
2021/10/01,10:10,1.5,north-northwest,7.5
2021/10/01,10:20,1.5,north-northwest,7.7
2021/10/01,10:30,1.5,north-northwest,7.1
2021/10/01,10:40,1.4,north,5.8
2021/10/01,10:50,1.4,north-northeast,6.1
2021/10/01,11:00,1.5,north,6.8
2021/10/01,11:10,1.6,north,7.0
2021/10/01,11:20,1.6,north,7.8
2021/10/01,11:30,1.5,north,7.1
2021/10/01,11:40,1.5,north,7.5
2021/10/01,11:50,1.6,north,6.9
2021/10/01,12:00,1.5,north,8.3
2021/10/01,12:10,1.5,north,8.1
2021/10/01,12:20,1.5,north-northwest,9.2
2021/10/01,12:30,1.5,north,8.7
2021/10/01,12:40,1.6,north-northwest,9.8
2021/10/01,12:50,1.6,north,8.8
2021/10/01,13:00,1.5,north,9.2
2021/10/01,13:10,1.4,north,7.7
2021/10/01,13:20,1.5,north,9.1
2021/10/01,13:30,1.4,north-northwest,9.3
2021/10/01,13:40,1.5,north,9.6
2021/10/01,13:50,1.5,north-northwest,10.2
2021/10/01,14:00,1.5,north-northwest,11.0
2021/10/01,14:10,1.4,north-northwest,13.8
2021/10/01,14:20,1.5,north,10.9
2021/10/01,14:30,1.5,north-northwest,9.8
2021/10/01,14:40,1.5,north,9.5
2021/10/01,14:50,1.5,north-northwest,11.6
2021/10/01,15:00,1.4,north-northwest,12.7
2021/10/01,15:10,1.6,north-northwest,13.2
2021/10/01,15:20,1.5,north-northwest,11.1
2021/10/01,15:30,1.5,north-northwest,11.3
2021/10/01,15:40,1.6,north-northwest,13.0
2021/10/01,15:50,1.4,north-northwest,9.9
2021/10/01,16:00,1.5,north-northwest,12.4
2021/10/01,16:10,1.5,north-northwest,8.2
2021/10/01,16:20,1.4,north-northwest,12.4
2021/10/01,16:30,1.5,north-northwest,11.3
2021/10/01,16:40,1.4,north-northwest,12.7
2021/10/01,16:50,1.4,north-northwest,11.9
2021/10/01,17:00,1.5,north-northwest,12.5
2021/10/01,17:10,1.5,north-northwest,14.7
2021/10/01,17:20,1.4,north-northwest,14.1
2021/10/01,17:30,1.5,north-northwest,11.3
2021/10/01,17:40,1.5,north-northwest,12.7
2021/10/01,17:50,1.5,north-northwest,12.7
2021/10/01,18:00,1.5,north-northwest,12.1
2021/10/01,18:10,1.4,north-northwest,10.4
2021/10/01,18:20,1.6,north-northwest,12.4
2021/10/01,18:30,1.6,north-northwest,11.8
2021/10/01,18:40,1.5,north-northwest,14.9
2021/10/01,18:50,1.5,north-northwest,13.3
2021/10/01,19:00,1.4,north-northwest,13.8
2021/10/01,19:10,1.5,north-northwest,13.3
2021/10/01,19:20,1.5,north-northwest,13.5
2021/10/01,19:30,1.5,north-northwest,15.2
2021/10/01,19:40,1.6,north-northwest,13.8
2021/10/01,19:50,1.5,north-northwest,15.7
2021/10/01,20:00,1.5,north-northwest,13.8
2021/10/01,20:10,1.5,north-northwest,13.8
2021/10/01,20:20,1.5,north-northwest,12.7
2021/10/01,20:30,1.5,north-northwest,12.5
2021/10/01,20:40,1.5,north-northwest,14.1
2021/10/01,20:50,1.5,north-northwest,12.7
2021/10/01,21:00,1.5,north-northwest,14.1
2021/10/01,21:10,1.5,north-northwest,13.6
2021/10/01,21:20,1.7,north-northwest,13.1
2021/10/01,21:30,1.4,north-northwest,14.4
2021/10/01,21:40,1.5,north-northwest,14.4
2021/10/01,21:50,1.5,north-northwest,14.6
2021/10/01,22:00,1.4,north-northwest,13.0
2021/10/01,22:10,1.6,north-northwest,12.1
2021/10/01,22:20,1.5,north-northwest,15.2
2021/10/01,22:30,1.5,north-northwest,13.8
2021/10/01,22:40,1.6,north-northwest,15.5
2021/10/01,22:50,1.5,north-northwest,14.4
2021/10/01,23:00,1.5,north-northwest,13.1
2021/10/01,23:10,1.6,north-northwest,12.7
2021/10/01,23:20,1.5,north-northwest,13.0
2021/10/01,23:30,1.4,north-northwest,14.2
2021/10/01,23:40,1.5,north-northwest,13.0
2021/10/01,23:50,1.4,north-northwest,14.6
